Regional Weather Roundup
Issued by NWS

Home | Current Version | Previous Version | Text Only | Print | Product List | Glossary On
Versions: 1 2 3 4 5 6 7 8 9 10 11 12 13 14 15 16 17 18 19 20 21 22 23 24 25 26 27 28 29 30 31 32 33 34 35 36 37 38 39 40 41 42 43 44 45 46 47 48 49 50
000
ASUS46 KSTO 180615
RWRCA

NORTHERN AND CENTRAL CA REGIONAL WEATHER ROUNDUP
NATIONAL WEATHER SERVICE SACRAMENTO CA
1000 PM PST TUE JAN 17 2017

NOTE: FAIR INDICATES FEW OR NO CLOUDS BELOW 12,000 FEET WITH NO
SIGNIFICANT WEATHER AND/OR OBSTRUCTIONS TO VISIBILITY.

CAZ001-003-180700-
NORTHWEST AREA

CITY           SKY/WX    TMP DP  RH WIND       PRES   REMARKS
CRESCENT CITY  LGT RAIN  53  48  83 S29G41    29.80F
UKIAH          CLOUDY    47  44  90 CALM      30.08R
$$

CAZ006-505>513-180700-
BAY AREA

CITY           SKY/WX    TMP DP  RH WIND       PRES   REMARKS
SANTA ROSA     CLOUDY    45  42  89 SW6       30.09S FOG
SAN RAFAEL     N/A       44  MM  MM MISG
NAPA           CLOUDY    45  41  86 E16       30.10F FOG
CONCORD        CLOUDY    45  39  79 E3        30.14F HAZE
OAKLAND CITY   N/A       48  MM  MM MISG
OAKLAND        CLOUDY    50  43  77 SE8       30.12F
SAN FRAN CITY  N/A       49  MM  74 MISG
SAN FRAN ARPT  CLOUDY    50  44  80 SE6       30.11F
LIVERMORE      CLOUDY    43  38  82 CALM      30.12F HAZE
HAYWARD        CLOUDY    49  39  68 CALM      30.12F
REDWOOD CITY   N/A       47  MM  88 MISG
MOFFETT ARPT   CLOUDY    49  42  77 CALM      30.12F
SAN JOSE ARPT  CLOUDY    50  43  77 CALM      30.12F
$$
CAZ034-037-514>518-180700-
CENTRAL COAST

CITY           SKY/WX    TMP DP  RH WIND       PRES   REMARKS
WATSONVILLE    CLOUDY    46  43  89 CALM      30.13F FOG
SALINAS        CLOUDY    47  45  93 CALM      30.13F
MONTEREY       CLOUDY    48  46  93 E6        30.13F
SAN LUIS OBISP PTCLDY    47  41  80 CALM      30.16R
SANTA MARIA    PTCLDY    43  40  89 SE3       30.16S
$$
CAZ015-016-180700-
NORTHERN SACRAMENTO VALLEY

CITY           SKY/WX    TMP DP  RH WIND       PRES   REMARKS
REDDING        CLOUDY    45  43  93 SW3       30.11S FOG
RED BLUFF      CLOUDY    44  42  93 SW5       30.13S
OROVILLE       CLOUDY    44  41  89 SE7       30.14F FOG
$$
CAZ016>018-180700-
SOUTHERN SACRAMENTO VALLEY

CITY           SKY/WX    TMP DP  RH WIND       PRES   REMARKS
AUBURN         CLOUDY    41  39  93 CALM      30.14S
BEALE AFB      CLOUDY    41 N/A N/A CALM      30.13F FOG
LINCOLN        CLOUDY    39  37  93 NE3       30.15F VSB 1/4
MARYSVILLE     CLOUDY    42  39  89 E5        30.15F FOG
SAC INTL ARPT  CLOUDY    41  41 100 CALM      30.15F FOG
MATHER AIRPORT PTCLDY    39  39 100 NE3       30.16F
DOWNTOWN SAC   N/A       42  MM  MM MISG
SAC EXEC ARPT  CLOUDY    41  41 100 CALM      30.16F FOG
VACAVILLE      CLOUDY    43  42  97 NE3       30.15F FOG
TRAVIS AFB     CLOUDY    42  41  97 NE6       30.12F FOG
$$
CAZ019>021-180700-
SAN JOAQUIN VALLEY

CITY           SKY/WX    TMP DP  RH WIND       PRES   REMARKS
STOCKTON       CLOUDY    41  40  96 CALM      30.14F FOG
MODESTO        CLOUDY    43  39  86 CALM      30.15F FOG
MERCED         MOCLDY    39  38  96 CALM      30.16S FOG
LEMOORE        PTCLDY    39  37  92 W3        30.18R FOG
FRESNO         PTCLDY    44  40  85 E3        30.17R FOG
HANFORD        PTCLDY    39  39 100 CALM      30.17S FOG
PORTERVILLE    CLEAR     40  39  97 E5        30.19R FOG
BAKERSFIELD    CLEAR     46  40  79 CALM      30.16R
$$
CAZ011-012-071-180700-
NORTHERN MOUNTAINS

CITY           SKY/WX    TMP DP  RH WIND       PRES   REMARKS
YREKA          LGT RAIN  44  30  57 S24G36    29.94R
MOUNT SHASTA   CLOUDY    38  27  64 SE5       30.07R WCI  34
ALTURAS        CLOUDY    37  26  64 S12       30.03S WCI  29
$$
CAZ011-012-071-180700-
SIERRA NEVADA MTNS

CITY           SKY/WX    TMP DP  RH WIND       PRES   REMARKS
BLUE CANYON    CLOUDY    38  26  62 SE8       30.14F WCI  32
TRUCKEE        FOG       25  25 100 CALM      30.12S VSB 1/2
TAHOE VLY ARPT CLOUDY    27  24  89 CALM      30.11S FOG
MAMMOTH LAKES  FAIR      16  11  80 CALM      30.17S
$$



USA.gov is the U.S. government's official web portal to all federal, state and local government web resources and services.